Regional Weather Roundup
Issued by NWS Kansas City/Pleasant Hill, MO

Home | Current Version | Previous Version | Text Only | Print | Product List | Glossary On
Versions: 1 2 3 4 5 6 7 8 9 10 11 12 13 14 15 16 17 18 19 20 21 22 23 24 25 26 27
000
ASUS43 KEAX 250410
RWREAX

WEATHER ROUNDUP FOR EASTERN KANSAS AND NORTHWEST MISSOURI
NATIONAL WEATHER SERVICE KANSAS CITY/PLEASANT HILL MO
1100 PM CDT TUE MAY 24 2016

KSZ040-057-103>105-MOZ028-029-037-043-250500-
...KANSAS CITY METROPOLITAN AREA...

CITY           SKY/WX    TMP DP  RH WIND       PRES   REMARKS
K.C. INTL      CLOUDY    73  67  81 SE12      29.90R
K.C. DOWNTOWN  CLOUDY    75  68  78 SE9       29.89R
LEES SUMMIT    CLEAR     71  65  81 SE12      29.91F
OLATHE - IXD   CLOUDY    72  68  87 SE10      29.90S
OLATHE - OJC   CLOUDY    71  67  87 SE12      29.90S
LAWRENCE       CLOUDY    73  69  87 SE9       29.88R

$$

MOZ001>008-011>017-020>025-030>033-038>040-044>046-053-054-250500-
...NORTHERN AND CENTRAL MISSOURI...

CITY           SKY/WX    TMP DP  RH WIND       PRES   REMARKS
ST. JOSEPH     CLOUDY    73  65  75 SE10      29.89R
MOSBY          CLOUDY    73  64  73 SE8G16    29.91R
WARRENSBURG    CLEAR     66  61  82 E8        29.93S
WHITEMAN AFB   MOCLDY    66  66  99 SE6       29.93S
CLINTON        MOCLDY    64  61  88 SE6       29.94S
SEDALIA        CLOUDY    66  62  87 SE9       29.96S
WARSAW         NOT AVBL
CHILLICOTHE      N/A     71  65  81 S7        29.94R
KIRKSVILLE     CLEAR     65  64  97 S6        29.96R

$$

MOZ041-047>049-056>058-063>065-088>090-097-250500-
...EASTERN AND SOUTHERN MISSOURI...

CITY           SKY/WX    TMP DP  RH WIND       PRES   REMARKS
ST. LOUIS INTL CLOUDY    70  61  73 S3        30.01F
SPIRIT OF STL  CLOUDY    65  62  90 S3        29.99F
COLUMBIA       CLOUDY    64  62  93 SE10      29.97F
JEFFERSON CITY CLOUDY    64  62  93 SE8       29.97F
ROLLA          CLOUDY    62  60  93 SE8       29.98F
SPRINGFIELD    CLOUDY    65  61  87 SE16      29.98S
JOPLIN         CLOUDY    72  68  87 SE6       29.90R
WEST PLAINS    CLOUDY    63  60  90 S9        30.05F

$$

IAZ060-094-KSZ022-034>040-054-083-096-NEZ052-066-093-250500-
...KANSAS...SOUTHEAST NEBRASKA AND IOWA...

CITY           SKY/WX    TMP DP  RH WIND       PRES   REMARKS
TOPEKA         CLOUDY    74  69  85 S6        29.88R
MANHATTAN      CLOUDY    77  69  76 S20G26    29.80F
EMPORIA        CLOUDY    72  68  87 SE9       29.88R
CHANUTE        CLOUDY    72  66  81 S6        29.89R
WICHITA        CLOUDY    74  62  66 S6        29.88R THUNDER
OMAHA          CLOUDY    74  63  68 S10       29.87R
LINCOLN        CLOUDY    74  62  66 E12       29.84F
FALLS CITY     CLOUDY    73  65  75 SE5       29.88R
LAMONI           N/A     67  64  90 SE8       29.91S
DES MOINES     PTCLDY    72  61  68 SE8       29.90S

$$





USA.gov is the U.S. government's official web portal to all federal, state and local government web resources and services.